Wind_Speed
9 9 9 8 8 7 8 8 8 8 8 8 8 8 8 8 7 8 7 7 7 7 6 7 6 5 5 5 5 4 3 3 2 2 2 3 3 3 4 3 3 4
10 10 9 9 8 8 8 8 8 8 8 7 8 8 8 8 8 8 7 7 7 7 7 7 7 6 6 5 5 5 3 3 3 3 2 3 4 4 4 4 3 3
11 11 11 10 10 9 9 9 8 8 8 8 8 8 9 9 10 9 8 8 7 7 8 7 7 7 7 5 5 5 4 4 4 3 2 2 4 5 4 4 4 3
13 12 12 11 10 10 9 9 9 9 9 9 9 8 8 9 10 10 9 9 8 8 8 8 8 8 7 6 5 5 5 5 5 3 3 4 4 5 5 4 4 3
14 13 12 12 10 9 9 9 9 9 9 9 9 9 8 8 10 10 10 10 9 9 9 9 8 8 8 7 6 6 6 6 6 5 5 5 5 5 5 4 4 4
15 14 13 12 10 10 10 9 9 9 10 10 9 10 9 9 10 10 10 10 10 10 10 9 9 9 8 8 7 7 7 6 5 6 6 6 5 5 5 4 4 4
15 15 14 13 12 12 11 11 10 10 10 10 9 10 10 10 10 10 10 10 10 10 10 9 9 9 8 8 8 8 7 6 5 6 6 6 5 5 5 5 5 5
15 15 15 14 14 14 13 12 12 11 11 10 10 10 10 10 11 11 10 10 10 9 9 9 9 9 9 9 8 8 8 8 7 7 7 7 6 6 6 6 5 6
15 15 15 15 15 15 15 14 13 13 12 12 12 12 11 11 11 11 11 10 9 9 9 9 9 10 10 9 9 9 8 8 8 8 8 8 7 7 7 6 6 7
16 15 16 16 16 15 15 15 14 13 13 13 13 12 12 12 11 11 11 11 10 10 10 10 10 10 10 10 10 9 9 9 8 8 8 8 7 7 7 7 7 7
16 16 16 16 16 16 15 15 14 14 14 14 13 12 12 12 12 11 11 12 11 11 11 11 11 11 11 11 11 10 10 10 9 9 9 8 8 8 8 8 8 8
16 16 16 16 16 16 16 15 15 14 14 14 13 13 12 12 13 13 12 12 12 11 12 12 12 11 11 11 11 10 10 10 10 10 10 9 9 9 9 9 9 9
16 16 16 16 16 15 15 15 16 15 14 14 13 13 14 13 13 13 13 13 13 13 12 12 12 12 12 11 11 10 10 10 10 10 10 10 10 10 10 11 10 10
16 15 15 15 14 14 14 13 14 15 14 14 13 14 15 14 14 14 13 13 13 13 13 13 13 13 12 12 12 12 11 11 11 11 11 11 11 11 11 11 11 11
15 14 13 13 11 12 13 13 12 13 14 14 14 14 14 14 15 15 14 14 14 14 14 13 13 13 13 13 12 12 12 12 11 11 11 12 12 12 12 12 12 12
15 14 13 13 12 12 12 12 13 13 14 14 15 15 14 14 15 15 15 15 15 15 14 14 14 14 14 15 14 12 11 10 11 11 11 12 12 12 13 13 12 13
14 13 13 13 12 12 12 12 13 13 14 13 14 15 15 15 15 15 16 16 15 15 15 14 14 13 12 15 17 16 13 10 10 10 11 11 12 13 13 13 13 14
12 12 12 12 11 10 10 10 11 12 13 13 13 14 14 15 15 16 16 16 16 16 16 14 12 12 12 13 15 16 16 14 12 11 12 12 13 13 14 14 15 15
10 10 12 12 10 9 8 8 9 10 11 11 11 11 11 13 15 15 15 16 16 16 16 11 8 12 15 14 14 15 15 15 14 13 14 14 14 14 14 14 14 14
10 11 12 13 12 11 11 10 10 10 10 10 9 9 9 9 12 14 14 14 14 14 12 7 6 10 12 13 14 14 14 15 15 14 14 15 15 15 15 15 15 15
13 14 14 13 13 13 14 14 13 13 13 11 9 9 10 10 11 12 11 10 11 9 5 2 3 6 8 9 11 12 13 14 14 13 13 14 15 15 15 15 14 14
11 12 11 12 13 13 12 11 12 12 12 11 9 10 13 11 10 11 12 11 10 6 2 2 3 4 7 9 10 11 12 12 11 11 12 13 14 14 12 12 11 11
6 8 8 8 10 11 9 7 7 8 7 7 7 7 8 8 7 7 9 9 5 1 3 7 5 4 5 7 8 10 10 10 10 11 12 13 13 11 10 11 11 10
6 6 7 7 7 8 8 6 5 5 5 4 3 3 4 6 5 4 3 4 5 8 5 6 5 3 4 6 7 8 8 8 9 10 10 11 10 7 8 10 9 7
5 5 6 7 7 8 8 7 7 7 5 5 5 4 4 5 5 6 4 3 6 9 6 3 3 3 4 5 7 8 7 7 7 8 9 11 9 5 6 8 6 6
6 7 8 9 9 9 8 8 9 8 7 6 6 4 4 5 6 7 7 6 7 6 2 1 1 1 0 2 4 5 7 7 5 5 6 8 7 4 5 7 5 4
Wind_Direction
174 173 177 176 176 179 177 179 178 175 179 181 179 179 178 175 173 176 176 180 185 188 191 192 197 202 202 207 208 210 227 236 236 218 224 258 272 275 276 267 273 286
181 179 182 181 181 184 183 183 180 176 178 181 179 174 172 173 171 174 176 179 186 187 189 192 193 199 201 204 209 213 226 233 237 238 230 253 274 275 276 272 265 271
186 185 187 189 190 189 184 180 180 181 181 179 177 173 174 177 174 175 178 178 186 186 186 193 193 196 202 201 207 216 219 222 231 243 242 251 267 272 273 274 271 267
192 193 193 195 194 188 184 183 183 184 183 180 179 179 179 177 174 178 181 180 185 184 183 192 194 194 200 201 210 219 219 224 228 233 249 250 257 265 266 273 281 285
193 195 197 199 195 188 186 189 190 186 186 184 180 181 180 174 176 182 184 184 187 186 185 189 192 193 197 199 208 217 220 228 225 220 238 249 249 255 256 260 270 280
192 195 198 199 195 193 192 192 194 191 188 186 182 183 183 181 185 187 186 189 191 190 190 188 190 195 197 198 205 214 224 233 215 204 224 245 246 249 252 252 258 267
191 193 196 199 195 194 195 193 194 195 192 188 187 188 187 186 190 190 189 194 194 193 192 186 189 198 197 197 204 210 221 229 217 211 232 245 244 246 250 250 250 255
192 192 195 200 198 195 195 195 194 194 193 190 190 192 191 190 193 193 192 195 196 195 194 186 187 200 203 201 207 210 216 223 219 218 231 239 240 244 248 248 246 248
194 194 195 199 203 201 198 199 196 193 193 194 194 193 193 194 196 193 191 196 198 193 194 193 191 203 211 209 211 213 217 227 225 220 224 230 235 238 241 244 244 247
195 197 197 199 205 206 203 203 201 196 195 197 199 197 193 194 198 195 189 194 201 194 194 202 200 205 214 214 214 217 220 229 230 225 227 230 235 240 240 245 247 250
197 199 200 201 205 207 204 206 207 202 200 201 203 202 198 194 195 197 190 192 203 201 199 206 206 207 214 216 218 220 221 225 226 227 232 231 234 239 240 243 248 251
200 201 201 201 206 208 204 204 208 208 206 205 203 204 205 199 195 199 198 198 205 206 203 207 209 210 214 218 223 223 223 226 226 226 231 233 234 238 237 239 244 247
201 203 204 203 205 210 209 204 205 209 211 210 208 208 209 206 201 202 202 201 205 209 208 208 209 212 214 217 224 227 227 230 232 231 232 234 239 241 241 241 242 242
200 203 207 208 205 208 215 213 207 206 211 213 213 215 215 213 211 210 208 208 208 211 213 212 212 215 217 218 223 228 230 231 233 235 237 238 242 245 247 248 248 247
199 202 206 212 209 205 213 219 215 209 210 212 216 220 221 218 218 217 215 216 215 215 219 220 220 220 220 220 221 225 232 236 236 236 240 244 247 250 252 253 254 255
193 195 198 203 205 204 207 214 217 216 216 215 215 219 224 224 224 223 220 220 221 220 220 223 227 227 223 219 218 220 226 235 239 238 240 246 249 252 255 257 258 260
182 185 189 194 198 202 206 209 214 218 219 218 216 218 223 225 226 227 226 225 225 224 225 228 229 230 223 214 214 220 226 236 246 246 244 247 250 254 257 260 262 263
182 186 191 193 194 197 203 208 215 216 216 219 221 221 222 224 226 228 228 230 231 228 230 231 222 217 222 220 218 222 229 238 250 255 254 252 251 252 255 257 260 263
197 202 204 204 201 201 204 208 215 216 217 219 223 226 227 226 227 228 229 232 235 235 236 231 203 200 212 220 222 225 229 235 245 255 258 259 258 256 257 258 259 264
214 213 213 210 208 212 217 219 220 220 222 223 225 230 234 233 235 237 236 235 236 237 236 219 182 194 205 213 221 227 234 240 247 254 256 259 261 261 261 263 262 263
214 212 212 208 207 211 217 220 222 224 224 224 225 229 230 235 242 245 249 253 249 246 235 156 165 202 212 222 232 239 247 250 252 256 258 260 262 261 264 268 270 277
206 207 208 207 207 208 210 214 220 224 224 219 221 229 229 233 242 244 249 260 266 271 263 229 240 239 231 237 243 245 250 254 255 259 262 263 264 266 272 276 278 288
175 186 189 194 202 201 198 202 208 211 212 208 215 226 219 212 217 221 227 231 227 172 204 219 225 239 245 252 257 255 255 258 261 263 264 266 269 272 280 285 282 283
153 168 172 178 189 187 177 167 161 162 163 164 169 174 165 165 158 140 163 184 130 104 131 183 189 213 254 272 278 271 263 260 262 261 263 271 276 282 284 279 275 278
141 148 157 165 168 161 153 142 130 123 118 108 99 97 110 112 99 86 87 117 114 112 124 155 175 201 239 266 274 270 256 252 265 268 264 266 274 292 290 268 257 274
112 106 109 115 118 118 122 126 119 109 108 112 110 113 115 104 93 86 89 104 121 138 151 35 44 109 160 268 271 271 250 239 267 295 282 270 271 282 278 264 261 283
Height
858 859 860 861 862 863 863 864 865 865 866 867 868 869 869 870 871 872 873 874 874 875 875 876 876 877 878 878 878 879 879 879 879 879 879 879 879 878 878 878 877 877
857 858 859 860 861 862 863 863 864 865 865 866 867 868 868 870 870 871 872 873 874 874 875 875 876 876 877 878 878 878 878 878 878 879 878 878 878 878 878 877 877 877
856 857 858 859 859 861 861 862 863 864 864 865 866 867 868 868 869 870 871 872 873 874 874 875 875 876 876 877 877 878 878 878 878 878 878 878 878 878 877 877 876 876
855 856 857 858 858 859 860 861 862 863 863 864 865 866 867 867 869 869 870 871 872 872 873 874 874 875 876 876 877 877 877 877 877 877 877 877 877 877 877 877 876 876
854 855 856 857 857 859 859 860 861 861 863 864 864 865 866 867 868 869 870 870 871 871 872 873 873 874 875 875 876 876 876 876 876 877 877 877 877 877 876 876 876 876
852 854 855 855 856 858 858 859 860 860 861 862 863 864 865 866 867 868 869 869 870 871 871 872 872 873 873 874 874 875 875 875 875 876 876 876 876 876 875 875 875 876
851 852 854 855 855 857 858 858 859 859 860 861 862 863 863 865 866 867 868 868 869 869 870 871 871 872 872 873 873 874 874 874 875 875 875 875 875 875 875 875 875 875
849 851 852 854 854 855 856 857 858 858 859 860 861 862 862 864 865 865 866 867 868 868 869 870 870 871 872 872 872 873 873 873 873 874 874 874 874 875 874 874 874 874
848 849 851 852 852 853 854 855 856 857 858 859 860 860 861 862 863 864 865 866 866 867 868 869 869 870 870 871 871 872 872 872 872 872 873 873 873 874 874 874 874 874
847 848 849 850 851 852 853 854 855 855 857 857 858 858 859 861 862 862 864 865 865 866 867 867 868 868 869 869 870 870 871 871 871 871 872 872 872 872 872 873 873 873
845 846 847 848 849 850 851 852 853 854 855 856 856 857 857 859 860 861 862 863 864 864 865 866 866 867 868 868 868 869 869 870 870 870 871 871 871 871 871 871 872 872
843 844 845 846 847 848 849 850 852 852 853 854 855 856 856 857 858 859 860 861 862 863 863 864 865 865 866 866 867 867 867 868 868 869 869 869 869 870 870 870 870 870
842 843 844 845 846 846 847 848 849 850 851 852 853 854 855 855 856 857 858 859 860 861 861 862 863 863 864 864 865 865 866 866 867 867 868 868 868 868 868 868 868 868
841 842 843 843 845 845 846 847 847 849 850 851 852 853 853 854 854 855 857 857 858 859 859 860 860 861 862 863 863 864 864 865 865 866 866 866 866 866 866 866 866 866
840 842 842 843 844 845 846 846 846 847 848 849 851 851 851 852 853 853 854 855 856 857 857 858 858 859 860 861 861 862 863 863 864 864 865 865 865 865 865 864 864 864
839 841 842 843 844 844 845 846 846 847 847 848 849 850 850 851 851 851 852 853 854 855 855 856 856 857 857 858 859 860 861 862 862 862 863 863 864 864 863 863 863 863
838 840 841 842 843 844 844 845 845 846 846 847 848 849 849 850 850 850 850 851 852 852 853 854 854 854 855 856 857 859 860 860 861 861 861 862 862 863 863 862 862 862
838 839 840 841 841 842 843 844 844 845 845 846 847 847 848 849 849 850 850 851 851 851 852 852 852 852 854 855 856 857 858 859 860 860 860 860 861 861 861 861 861 861
837 838 839 840 840 841 842 842 843 844 844 845 846 846 847 848 849 849 850 850 850 850 852 852 851 851 853 854 855 855 857 858 859 859 859 859 859 859 859 859 860 860
837 838 839 840 839 840 841 841 842 842 843 844 845 845 846 847 848 849 849 851 851 851 853 852 851 851 852 853 854 855 855 856 857 858 858 858 858 857 857 857 858 859
837 837 838 837 837 838 839 840 840 841 842 843 843 844 845 846 847 848 850 851 852 852 854 853 852 852 853 853 854 854 855 855 856 856 857 857 856 856 856 857 857 857
834 835 835 835 835 837 837 838 839 840 841 841 842 842 843 845 847 848 850 852 852 853 854 854 852 852 853 853 854 854 854 855 855 855 855 855 855 855 855 855 855 856
833 834 834 834 835 836 837 838 838 839 840 840 841 841 842 844 846 847 849 850 850 851 853 852 851 852 852 853 854 854 854 854 855 854 854 854 854 854 854 853 853 854
834 834 834 835 836 836 837 838 838 839 840 840 840 840 841 844 845 845 846 847 848 850 852 851 850 850 852 853 854 854 854 854 854 853 853 853 854 854 853 852 853 853
835 835 835 836 838 838 838 838 839 839 840 839 840 841 842 843 844 844 845 846 848 851 853 852 850 850 850 851 853 853 853 853 853 852 852 853 854 854 852 852 852 852
837 837 837 837 838 839 839 839 839 840 840 840 841 842 843 843 844 845 846 847 848 850 851 851 851 850 850 851 852 852 853 853 853 852 852 852 853 853 852 851 852 852